Simultaneous Nadir Overpasses (SNOs) Predictions

Prediction of SNOs between GOES-15 and METOP-A Satellite Orbit:

Table of predicted SNOs for the next 14.0 days since TLE Epoch: 10/14/2016
Index Date Time (GOES-15) GOES-15 Lat,Lon METOP-A Lat,Lon Distance(km) Time Diff (sec)
1 10/15/2016 06:13:01 0.29,-134.91 1.09,-131.45 395.64 80
2 10/16/2016 18:31:53 -0.30,-134.90 -0.05,-136.00 125.57 80
3 10/17/2016 18:13:53 -0.30,-134.86 -1.16,-131.00 439.66 80
4 10/19/2016 06:32:53 0.30,-134.75 0.12,-135.59 95.21 80
5 10/20/2016 06:09:34 0.29,-134.71 1.22,-130.59 469.16 80
6 10/21/2016 18:28:25 -0.29,-134.68 -0.19,-135.15 53.60 80
7 10/24/2016 06:29:26 0.29,-134.52 0.26,-134.74 24.26 80
8 10/26/2016 18:27:37 -0.29,-134.43 -0.29,-134.29 16.33 80




NCC Satellite Simultaneous Nadir Overpasses (SNOs) Prediction Service
